Station Historical Data
Daily Summary for May 3, 2017 Units:  English    Metric   Both
« Previous Day
Next Day »
Daily Weekly Monthly Yearly Custom
  High: Low: Average:
Temperature: 82.8 °F 65.9 °F 72.8 °F
Dew Point: 59.4 °F 42.4 °F 51.3 °F
Humidity: 68 % 36 % 48 %
Wind Speed: 22.0 mph 0.0 mph 3.8 mph
Wind Gust: 26.0 mph - -
Wind:- - SSE
Pressure: 29.95 in 29.91 in -
Precipitation: 0.00 in    
Historical Graphs
 
 
Tabular Data for May 3, 2017
Time Temperature Dew Point Pressure Wind Wind Speed Wind Gust Humidity Rainfall Rate (Hourly) solar
00:00 65.9 °F 52.5 °F 29.94 in East 9.0 mph 22.0 mph 62 % 0.00 in 0.00 W/m2
00:05 66.0 °F 52.2 °F 29.93 in ESE 2.0 mph 18.0 mph 61 % 0.00 in 0.00 W/m2
00:10 66.1 °F 51.8 °F 29.94 in Calm   21.0 mph 60 % 0.00 in 0.00 W/m2
00:15 66.2 °F 51.5 °F 29.94 in East 7.0 mph 20.0 mph 59 % 0.00 in 0.00 W/m2
00:20 66.2 °F 50.5 °F 29.94 in East 2.0 mph 18.0 mph 57 % 0.00 in 0.00 W/m2
00:25 66.3 °F 50.6 °F 29.94 in East 4.0 mph 14.0 mph 57 % 0.00 in 0.00 W/m2
00:30 66.3 °F 50.2 °F 29.94 in East 1.0 mph 21.0 mph 56 % 0.00 in 0.00 W/m2
00:35 66.4 °F 50.2 °F 29.94 in SE 9.0 mph 19.0 mph 56 % 0.00 in 0.00 W/m2
00:40 66.5 °F 49.8 °F 29.94 in East 18.0 mph 18.0 mph 55 % 0.00 in 0.00 W/m2
00:45 66.6 °F 50.0 °F 29.94 in East 16.0 mph 19.0 mph 55 % 0.00 in 0.00 W/m2
00:50 66.6 °F 49.5 °F 29.94 in Calm   18.0 mph 54 % 0.00 in 0.00 W/m2
00:55 66.6 °F 49.5 °F 29.94 in ESE 4.0 mph 16.0 mph 54 % 0.00 in 0.00 W/m2
01:00 66.6 °F 49.0 °F 29.94 in ESE 7.0 mph 23.0 mph 53 % 0.00 in 0.00 W/m2
01:05 66.7 °F 49.5 °F 29.93 in ESE 13.0 mph 20.0 mph 54 % 0.00 in 0.00 W/m2
01:10 66.7 °F 49.0 °F 29.93 in East 8.0 mph 19.0 mph 53 % 0.00 in 0.00 W/m2
01:15 66.7 °F 48.5 °F 29.93 in ESE 6.0 mph 21.0 mph 52 % 0.00 in 0.00 W/m2
01:20 66.7 °F 48.5 °F 29.93 in East 1.0 mph 23.0 mph 52 % 0.00 in 0.00 W/m2
01:25 66.7 °F 48.5 °F 29.93 in SE 8.0 mph 19.0 mph 52 % 0.00 in 0.00 W/m2
01:30 66.8 °F 48.1 °F 29.93 in ESE 11.0 mph 18.0 mph 51 % 0.00 in 0.00 W/m2
01:35 66.8 °F 48.1 °F 29.93 in SE 1.0 mph 15.0 mph 51 % 0.00 in 0.00 W/m2
01:40 66.8 °F 47.6 °F 29.93 in ESE 2.0 mph 18.0 mph 50 % 0.00 in 0.00 W/m2
01:46 66.8 °F 47.6 °F 29.93 in East 15.0 mph 18.0 mph 50 % 0.00 in 0.00 W/m2
01:51 66.8 °F 47.6 °F 29.92 in ESE 8.0 mph 21.0 mph 50 % 0.00 in 0.00 W/m2
01:56 66.8 °F 47.6 °F 29.93 in ESE 8.0 mph 18.0 mph 50 % 0.00 in 0.00 W/m2
02:01 66.8 °F 48.1 °F 29.92 in East 10.0 mph 21.0 mph 51 % 0.00 in 0.00 W/m2
02:06 66.8 °F 47.6 °F 29.92 in Calm   18.0 mph 50 % 0.00 in 0.00 W/m2
02:11 66.7 °F 47.0 °F 29.92 in SE 7.0 mph 23.0 mph 49 % 0.00 in 0.00 W/m2
02:16 66.7 °F 47.5 °F 29.92 in ESE 12.0 mph 19.0 mph 50 % 0.00 in 0.00 W/m2
02:21 66.7 °F 47.0 °F 29.92 in East 11.0 mph 22.0 mph 49 % 0.00 in 0.00 W/m2
02:26 66.7 °F 47.0 °F 29.92 in SE 9.0 mph 17.0 mph 49 % 0.00 in 0.00 W/m2
02:31 66.7 °F 47.0 °F 29.92 in ESE 16.0 mph 20.0 mph 49 % 0.00 in 0.00 W/m2
02:36 66.7 °F 47.0 °F 29.92 in ESE 1.0 mph 20.0 mph 49 % 0.00 in 0.00 W/m2
02:41 66.7 °F 47.0 °F 29.92 in East 4.0 mph 16.0 mph 49 % 0.00 in 0.00 W/m2
02:46 66.7 °F 47.0 °F 29.92 in ESE 11.0 mph 21.0 mph 49 % 0.00 in 0.00 W/m2
02:48 66.7 °F 46.4 °F 29.92 in ESE 6.0 mph 19.0 mph 48 % 0.00 in 0.00 W/m2
02:53 66.7 °F 45.8 °F 29.92 in East 6.0 mph 14.0 mph 47 % 0.00 in 0.00 W/m2
02:58 66.7 °F 46.4 °F 29.92 in ESE 1.0 mph 17.0 mph 48 % 0.00 in 0.00 W/m2
03:03 66.7 °F 46.4 °F 29.92 in East 15.0 mph 20.0 mph 48 % 0.00 in 0.00 W/m2
03:08 66.7 °F 45.8 °F 29.92 in SE 13.0 mph 18.0 mph 47 % 0.00 in 0.00 W/m2
03:13 66.8 °F 46.5 °F 29.92 in Calm   16.0 mph 48 % 0.00 in 0.00 W/m2
03:18 66.8 °F 45.9 °F 29.92 in ESE 1.0 mph 14.0 mph 47 % 0.00 in 0.00 W/m2
03:23 66.8 °F 46.5 °F 29.92 in ESE 8.0 mph 18.0 mph 48 % 0.00 in 0.00 W/m2
03:28 66.7 °F 46.4 °F 29.92 in SE 12.0 mph 22.0 mph 48 % 0.00 in 0.00 W/m2
03:33 66.7 °F 47.0 °F 29.92 in East 6.0 mph 13.0 mph 49 % 0.00 in 0.00 W/m2
03:38 66.6 °F 46.3 °F 29.92 in ESE 12.0 mph 18.0 mph 48 % 0.00 in 0.00 W/m2
03:43 66.5 °F 45.7 °F 29.92 in ESE 20.0 mph 20.0 mph 47 % 0.00 in 0.00 W/m2
03:46 66.5 °F 45.1 °F 29.92 in East 7.0 mph 20.0 mph 46 % 0.00 in 0.00 W/m2
03:49 66.5 °F 46.2 °F 29.92 in East 13.0 mph 21.0 mph 48 % 0.00 in 0.00 W/m2
03:54 66.5 °F 45.7 °F 29.92 in ESE 9.0 mph 21.0 mph 47 % 0.00 in 0.00 W/m2
03:59 66.5 °F 44.5 °F 29.92 in Calm   22.0 mph 45 % 0.00 in 0.00 W/m2
04:04 66.5 °F 45.1 °F 29.92 in ESE 9.0 mph 18.0 mph 46 % 0.00 in 0.00 W/m2
04:09 66.5 °F 45.1 °F 29.92 in ESE 8.0 mph 18.0 mph 46 % 0.00 in 0.00 W/m2
04:14 66.6 °F 45.2 °F 29.92 in ESE 11.0 mph 16.0 mph 46 % 0.00 in 0.00 W/m2
04:19 66.6 °F 44.6 °F 29.92 in East 3.0 mph 18.0 mph 45 % 0.00 in 0.00 W/m2
04:24 66.6 °F 45.2 °F 29.92 in Calm   19.0 mph 46 % 0.00 in 0.00 W/m2
04:29 66.6 °F 45.2 °F 29.92 in ESE 6.0 mph 15.0 mph 46 % 0.00 in 0.00 W/m2
04:34 66.5 °F 44.5 °F 29.92 in Calm   18.0 mph 45 % 0.00 in 0.00 W/m2
04:39 66.5 °F 44.5 °F 29.92 in Calm   14.0 mph 45 % 0.00 in 0.00 W/m2
04:44 66.5 °F 45.1 °F 29.92 in East 9.0 mph 15.0 mph 46 % 0.00 in 0.00 W/m2
04:49 66.5 °F 45.1 °F 29.92 in ESE 8.0 mph 18.0 mph 46 % 0.00 in 0.00 W/m2
04:54 66.4 °F 44.4 °F 29.92 in Calm   20.0 mph 45 % 0.00 in 0.00 W/m2
04:59 66.3 °F 44.3 °F 29.92 in Calm   22.0 mph 45 % 0.00 in 0.00 W/m2
05:04 66.3 °F 44.3 °F 29.92 in ESE 19.0 mph 19.0 mph 45 % 0.00 in 0.00 W/m2
05:09 66.3 °F 44.3 °F 29.92 in SSE 6.0 mph 21.0 mph 45 % 0.00 in 0.00 W/m2
05:14 66.2 °F 44.8 °F 29.92 in ESE 4.0 mph 16.0 mph 46 % 0.00 in 0.00 W/m2
05:20 66.2 °F 44.8 °F 29.92 in ESE 8.0 mph 22.0 mph 46 % 0.00 in 0.00 W/m2
05:25 66.2 °F 44.8 °F 29.92 in ESE 22.0 mph 22.0 mph 46 % 0.00 in 0.00 W/m2
05:30 66.3 °F 44.3 °F 29.92 in East 9.0 mph 22.0 mph 45 % 0.00 in 0.00 W/m2
05:35 66.4 °F 43.2 °F 29.92 in ENE 10.0 mph 25.0 mph 43 % 0.00 in 0.00 W/m2
05:40 66.5 °F 43.9 °F 29.92 in ESE 11.0 mph 19.0 mph 44 % 0.00 in 0.00 W/m2
05:45 66.7 °F 43.5 °F 29.92 in East 15.0 mph 20.0 mph 43 % 0.00 in 0.00 W/m2
05:50 66.8 °F 44.8 °F 29.92 in ESE 13.0 mph 21.0 mph 45 % 0.00 in 0.00 W/m2
05:55 66.8 °F 44.8 °F 29.92 in ESE 11.0 mph 20.0 mph 45 % 0.00 in 0.00 W/m2
06:00 66.8 °F 44.2 °F 29.92 in East 10.0 mph 26.0 mph 44 % 0.00 in 0.00 W/m2
06:05 66.8 °F 43.6 °F 29.92 in ESE 1.0 mph 14.0 mph 43 % 0.00 in 5.00 W/m2
06:10 66.8 °F 43.6 °F 29.92 in Calm   20.0 mph 43 % 0.00 in 7.00 W/m2
06:15 66.8 °F 42.4 °F 29.92 in ESE 8.0 mph 24.0 mph 41 % 0.00 in 9.00 W/m2
06:20 67.0 °F 43.8 °F 29.92 in SE 7.0 mph 23.0 mph 43 % 0.00 in 12.00 W/m2
06:25 67.0 °F 43.2 °F 29.92 in East 11.0 mph 21.0 mph 42 % 0.00 in 14.00 W/m2
06:30 67.1 °F 43.3 °F 29.92 in ESE 9.0 mph 25.0 mph 42 % 0.00 in 18.00 W/m2
06:35 67.2 °F 44.0 °F 29.92 in Calm   22.0 mph 43 % 0.00 in 23.00 W/m2
06:40 67.2 °F 43.4 °F 29.93 in East 6.0 mph 21.0 mph 42 % 0.00 in 39.00 W/m2
06:45 67.2 °F 43.4 °F 29.93 in East 10.0 mph 23.0 mph 42 % 0.00 in 49.00 W/m2
06:50 67.2 °F 44.0 °F 29.93 in ESE 13.0 mph 20.0 mph 43 % 0.00 in 70.00 W/m2
06:55 67.2 °F 44.0 °F 29.93 in East 7.0 mph 14.0 mph 43 % 0.00 in 84.00 W/m2
07:00 67.2 °F 43.4 °F 29.93 in East 2.0 mph 18.0 mph 42 % 0.00 in 105.00 W/m2
07:05 67.2 °F 44.0 °F 29.93 in East 2.0 mph 20.0 mph 43 % 0.00 in 120.00 W/m2
07:10 67.2 °F 45.2 °F 29.94 in East 6.0 mph 18.0 mph 45 % 0.00 in 141.00 W/m2
07:15 67.2 °F 42.7 °F 29.94 in East 13.0 mph 23.0 mph 41 % 0.00 in 160.00 W/m2
07:20 67.2 °F 44.0 °F 29.94 in SE 2.0 mph 24.0 mph 43 % 0.00 in 179.00 W/m2
07:25 67.4 °F 44.8 °F 29.94 in ESE 8.0 mph 21.0 mph 44 % 0.00 in 202.00 W/m2
07:30 67.4 °F 44.2 °F 29.94 in East 2.0 mph 14.0 mph 43 % 0.00 in 223.00 W/m2
07:35 67.4 °F 44.2 °F 29.94 in East 10.0 mph 16.0 mph 43 % 0.00 in 244.00 W/m2
07:40 67.5 °F 44.2 °F 29.94 in ESE 1.0 mph 18.0 mph 43 % 0.00 in 272.00 W/m2
07:45 67.7 °F 45.6 °F 29.94 in Calm   19.0 mph 45 % 0.00 in 290.00 W/m2
07:50 67.7 °F 45.6 °F 29.94 in Calm   18.0 mph 45 % 0.00 in 309.00 W/m2
07:55 67.7 °F 45.6 °F 29.94 in East 11.0 mph 16.0 mph 45 % 0.00 in 322.00 W/m2
08:00 67.8 °F 46.3 °F 29.94 in East 17.0 mph 19.0 mph 46 % 0.00 in 343.00 W/m2
08:05 67.8 °F 44.5 °F 29.94 in ESE 1.0 mph 18.0 mph 43 % 0.00 in 362.00 W/m2
08:10 68.0 °F 45.9 °F 29.94 in ESE 7.0 mph 19.0 mph 45 % 0.00 in 376.00 W/m2
08:16 68.1 °F 46.0 °F 29.94 in ESE 6.0 mph 16.0 mph 45 % 0.00 in 397.00 W/m2
08:21 68.3 °F 47.3 °F 29.94 in Calm   14.0 mph 47 % 0.00 in 410.00 W/m2
08:26 68.4 °F 47.4 °F 29.94 in ENE 12.0 mph 18.0 mph 47 % 0.00 in 429.00 W/m2
08:31 68.6 °F 47.0 °F 29.94 in Calm   6.0 mph 46 % 0.00 in 446.00 W/m2
08:36 68.7 °F 47.7 °F 29.94 in Calm   6.0 mph 47 % 0.00 in 462.00 W/m2
08:41 68.9 °F 47.3 °F 29.94 in East 1.0 mph 6.0 mph 46 % 0.00 in 480.00 W/m2
08:46 69.1 °F 46.9 °F 29.94 in Calm   3.0 mph 45 % 0.00 in 494.00 W/m2
08:51 69.4 °F 47.2 °F 29.94 in Calm   8.0 mph 45 % 0.00 in 513.00 W/m2
08:56 69.6 °F 46.8 °F 29.95 in Calm   5.0 mph 44 % 0.00 in 531.00 W/m2
09:01 69.9 °F 47.0 °F 29.95 in ESE 12.0 mph 12.0 mph 44 % 0.00 in 541.00 W/m2
09:06 70.2 °F 47.3 °F 29.95 in Calm   5.0 mph 44 % 0.00 in 561.00 W/m2
09:11 70.5 °F 48.2 °F 29.95 in SE 4.0 mph 11.0 mph 45 % 0.00 in 575.00 W/m2
09:16 70.8 °F 45.3 °F 29.95 in ESE 2.0 mph 4.0 mph 40 % 0.00 in 587.00 W/m2
09:19 71.1 °F 46.2 °F 29.95 in ESE 1.0 mph 15.0 mph 41 % 0.00 in 594.00 W/m2
09:21 71.3 °F 45.8 °F 29.94 in Calm   1.0 mph 40 % 0.00 in 603.00 W/m2
09:26 71.7 °F 48.0 °F 29.94 in East 1.0 mph 9.0 mph 43 % 0.00 in 612.00 W/m2
09:31 71.9 °F 46.3 °F 29.94 in Calm   7.0 mph 40 % 0.00 in 631.00 W/m2
09:36 72.1 °F 48.4 °F 29.95 in SE 4.0 mph 8.0 mph 43 % 0.00 in 647.00 W/m2
09:42 72.4 °F 51.0 °F 29.95 in SE 2.0 mph 4.0 mph 47 % 0.00 in 647.00 W/m2
09:47 72.5 °F 48.1 °F 29.94 in SE 1.0 mph 8.0 mph 42 % 0.00 in 656.00 W/m2
09:52 72.7 °F 45.7 °F 29.95 in East 6.0 mph 14.0 mph 38 % 0.00 in 689.00 W/m2
09:57 73.0 °F 47.3 °F 29.95 in Calm   7.0 mph 40 % 0.00 in 705.00 W/m2
10:02 73.2 °F 46.1 °F 29.95 in ESE 1.0 mph 5.0 mph 38 % 0.00 in 717.00 W/m2
10:07 73.5 °F 46.4 °F 29.95 in SE 1.0 mph 6.0 mph 38 % 0.00 in 729.00 W/m2
10:12 73.9 °F 49.4 °F 29.95 in SE 2.0 mph 5.0 mph 42 % 0.00 in 742.00 W/m2
10:17 74.1 °F 48.3 °F 29.95 in SE 4.0 mph 4.0 mph 40 % 0.00 in 754.00 W/m2
10:22 74.4 °F 46.5 °F 29.95 in ESE 4.0 mph 7.0 mph 37 % 0.00 in 765.00 W/m2
10:27 74.6 °F 47.3 °F 29.95 in East 2.0 mph 2.0 mph 38 % 0.00 in 775.00 W/m2
10:32 74.9 °F 48.3 °F 29.95 in East 2.0 mph 4.0 mph 39 % 0.00 in 788.00 W/m2
10:37 75.2 °F 47.2 °F 29.95 in SSE 1.0 mph 2.0 mph 37 % 0.00 in 798.00 W/m2
10:42 75.8 °F 48.4 °F 29.95 in Calm   4.0 mph 38 % 0.00 in 807.00 W/m2
10:47 76.4 °F 49.6 °F 29.95 in Calm   6.0 mph 39 % 0.00 in 817.00 W/m2
10:52 76.6 °F 47.7 °F 29.95 in SSW 3.0 mph 4.0 mph 36 % 0.00 in 828.00 W/m2
10:57 77.1 °F 48.1 °F 29.95 in SSW 2.0 mph 3.0 mph 36 % 0.00 in 838.00 W/m2
11:02 77.5 °F 50.6 °F 29.95 in SW 6.0 mph 7.0 mph 39 % 0.00 in 847.00 W/m2
11:07 77.8 °F 50.2 °F 29.95 in South 1.0 mph 7.0 mph 38 % 0.00 in 853.00 W/m2
11:12 78.1 °F 51.2 °F 29.95 in SW 5.0 mph 7.0 mph 39 % 0.00 in 861.00 W/m2
11:17 78.4 °F 51.4 °F 29.95 in WSW 2.0 mph 3.0 mph 39 % 0.00 in 868.00 W/m2
11:22 78.7 °F 51.7 °F 29.95 in SSW 4.0 mph 7.0 mph 39 % 0.00 in 877.00 W/m2
11:27 79.0 °F 50.5 °F 29.95 in Calm   7.0 mph 37 % 0.00 in 884.00 W/m2
11:28 79.0 °F 50.5 °F 29.95 in WSW 1.0 mph 7.0 mph 37 % 0.00 in 886.00 W/m2
11:32 79.1 °F 51.3 °F 29.95 in WSW 5.0 mph 7.0 mph 38 % 0.00 in 889.00 W/m2
11:37 79.3 °F 51.5 °F 29.95 in WSW 1.0 mph 3.0 mph 38 % 0.00 in 896.00 W/m2
11:42 79.4 °F 50.2 °F 29.95 in Calm   5.0 mph 36 % 0.00 in 902.00 W/m2
11:47 79.5 °F 51.7 °F 29.95 in WSW 9.0 mph 9.0 mph 38 % 0.00 in 907.00 W/m2
11:52 79.7 °F 54.6 °F 29.95 in Calm   6.0 mph 42 % 0.00 in 914.00 W/m2
11:57 80.0 °F 52.1 °F 29.95 in Calm   4.0 mph 38 % 0.00 in 919.00 W/m2
12:02 80.4 °F 53.2 °F 29.95 in Calm   4.0 mph 39 % 0.00 in 923.00 W/m2
12:07 80.6 °F 53.4 °F 29.95 in WSW 3.0 mph 5.0 mph 39 % 0.00 in 925.00 W/m2
12:12 80.5 °F 52.6 °F 29.95 in Calm   1.0 mph 38 % 0.00 in 932.00 W/m2
12:17 80.7 °F 54.2 °F 29.95 in WSW 1.0 mph 10.0 mph 40 % 0.00 in 935.00 W/m2
12:22 81.2 °F 55.3 °F 29.95 in Calm   4.0 mph 41 % 0.00 in 935.00 W/m2
12:27 81.9 °F 53.1 °F 29.94 in Calm   10.0 mph 37 % 0.00 in 940.00 W/m2
12:29 82.1 °F 53.3 °F 29.95 in SSW 1.0 mph 10.0 mph 37 % 0.00 in 940.00 W/m2
12:34 82.5 °F 52.9 °F 29.94 in WSW 4.0 mph 9.0 mph 36 % 0.00 in 942.00 W/m2
12:39 82.6 °F 53.0 °F 29.94 in Calm   8.0 mph 36 % 0.00 in 942.00 W/m2
12:44 82.6 °F 53.7 °F 29.94 in WSW 3.0 mph 9.0 mph 37 % 0.00 in 944.00 W/m2
12:49 82.7 °F 53.1 °F 29.94 in WSW 3.0 mph 10.0 mph 36 % 0.00 in 947.00 W/m2
12:50 82.7 °F 53.8 °F 29.94 in West 3.0 mph 10.0 mph 37 % 0.00 in 946.00 W/m2
12:55 82.3 °F 54.9 °F 29.94 in West 2.0 mph 10.0 mph 39 % 0.00 in 946.00 W/m2
13:00 81.9 °F 52.3 °F 29.94 in WSW 8.0 mph 8.0 mph 36 % 0.00 in 944.00 W/m2
13:05 81.9 °F 54.5 °F 29.94 in Calm   10.0 mph 39 % 0.00 in 946.00 W/m2
13:10 82.2 °F 53.4 °F 29.94 in West 6.0 mph 9.0 mph 37 % 0.00 in 942.00 W/m2
13:15 82.3 °F 53.5 °F 29.94 in SW 7.0 mph 9.0 mph 37 % 0.00 in 940.00 W/m2
13:20 82.3 °F 54.2 °F 29.94 in SW 2.0 mph 9.0 mph 38 % 0.00 in 940.00 W/m2
13:25 82.5 °F 54.4 °F 29.94 in West 7.0 mph 13.0 mph 38 % 0.00 in 937.00 W/m2
13:30 82.8 °F 53.2 °F 29.94 in Calm   10.0 mph 36 % 0.00 in 937.00 W/m2
13:35 82.4 °F 53.5 °F 29.94 in WSW 3.0 mph 8.0 mph 37 % 0.00 in 932.00 W/m2
13:40 81.9 °F 54.5 °F 29.94 in West 5.0 mph 10.0 mph 39 % 0.00 in 928.00 W/m2
13:41 81.9 °F 55.2 °F 29.94 in WSW 2.0 mph 10.0 mph 40 % 0.00 in 928.00 W/m2
13:46 81.9 °F 54.5 °F 29.94 in Calm   7.0 mph 39 % 0.00 in 926.00 W/m2
13:51 81.6 °F 53.6 °F 29.94 in WSW 6.0 mph 7.0 mph 38 % 0.00 in 921.00 W/m2
13:56 81.4 °F 52.7 °F 29.94 in Calm   11.0 mph 37 % 0.00 in 918.00 W/m2
14:01 81.6 °F 52.8 °F 29.94 in SSW 1.0 mph 7.0 mph 37 % 0.00 in 911.00 W/m2
14:06 81.7 °F 53.7 °F 29.94 in West 10.0 mph 10.0 mph 38 % 0.00 in 905.00 W/m2
14:11 81.7 °F 52.2 °F 29.94 in West 5.0 mph 10.0 mph 36 % 0.00 in 900.00 W/m2
14:16 81.8 °F 53.0 °F 29.94 in WSW 7.0 mph 11.0 mph 37 % 0.00 in 891.00 W/m2
14:21 82.0 °F 52.4 °F 29.94 in West 1.0 mph 14.0 mph 36 % 0.00 in 888.00 W/m2
14:26 81.8 °F 52.3 °F 29.94 in SW 7.0 mph 8.0 mph 36 % 0.00 in 879.00 W/m2
14:31 81.7 °F 52.9 °F 29.94 in Calm   8.0 mph 37 % 0.00 in 872.00 W/m2
14:36 81.7 °F 54.4 °F 29.94 in West 2.0 mph 10.0 mph 39 % 0.00 in 863.00 W/m2
14:41 81.6 °F 53.6 °F 29.94 in SW 6.0 mph 10.0 mph 38 % 0.00 in 856.00 W/m2
14:46 81.9 °F 53.8 °F 29.94 in SW 2.0 mph 11.0 mph 38 % 0.00 in 19.00 W/m2
14:51 82.1 °F 54.0 °F 29.94 in WNW 1.0 mph 8.0 mph 38 % 0.00 in 838.00 W/m2
14:56 82.1 °F 54.7 °F 29.93 in Calm   6.0 mph 39 % 0.00 in 830.00 W/m2
15:01 82.0 °F 54.6 °F 29.93 in WSW 7.0 mph 9.0 mph 39 % 0.00 in 821.00 W/m2
15:06 81.9 °F 54.5 °F 29.94 in SW 4.0 mph 5.0 mph 39 % 0.00 in 810.00 W/m2
15:11 81.9 °F 53.8 °F 29.93 in SW 1.0 mph 7.0 mph 38 % 0.00 in 802.00 W/m2
15:16 81.7 °F 55.0 °F 29.93 in WNW 1.0 mph 1.0 mph 40 % 0.00 in 788.00 W/m2
15:19 81.5 °F 55.5 °F 29.93 in Calm   4.0 mph 41 % 0.00 in 780.00 W/m2
15:24 81.2 °F 56.0 °F 29.93 in WSW 5.0 mph 8.0 mph 42 % 0.00 in 768.00 W/m2
15:29 81.1 °F 56.5 °F 29.93 in Calm   6.0 mph 43 % 0.00 in 759.00 W/m2
15:34 81.1 °F 56.5 °F 29.93 in WSW 8.0 mph 8.0 mph 43 % 0.00 in 747.00 W/m2
15:39 81.0 °F 56.4 °F 29.93 in Calm   8.0 mph 43 % 0.00 in 737.00 W/m2
15:44 81.1 °F 56.5 °F 29.93 in Calm   7.0 mph 43 % 0.00 in 729.00 W/m2
15:49 81.0 °F 55.8 °F 29.92 in SSW 4.0 mph 10.0 mph 42 % 0.00 in 712.00 W/m2
15:54 80.9 °F 55.7 °F 29.92 in SSW 9.0 mph 9.0 mph 42 % 0.00 in 701.00 W/m2
15:59 80.9 °F 55.7 °F 29.92 in Calm   8.0 mph 42 % 0.00 in 687.00 W/m2
16:04 80.8 °F 53.6 °F 29.92 in WSW 7.0 mph 9.0 mph 39 % 0.00 in 673.00 W/m2
16:09 80.8 °F 54.9 °F 29.92 in Calm   4.0 mph 41 % 0.00 in 661.00 W/m2
16:14 80.8 °F 54.2 °F 29.92 in SW 6.0 mph 6.0 mph 40 % 0.00 in 645.00 W/m2
16:19 80.8 °F 53.6 °F 29.92 in WSW 3.0 mph 6.0 mph 39 % 0.00 in 633.00 W/m2
16:24 80.9 °F 54.3 °F 29.92 in WSW 2.0 mph 7.0 mph 40 % 0.00 in 619.00 W/m2
16:29 80.9 °F 52.9 °F 29.92 in SW 4.0 mph 8.0 mph 38 % 0.00 in 608.00 W/m2
16:34 81.0 °F 52.3 °F 29.92 in SW 5.0 mph 7.0 mph 37 % 0.00 in 596.00 W/m2
16:39 81.0 °F 52.3 °F 29.92 in WSW 3.0 mph 5.0 mph 37 % 0.00 in 573.00 W/m2
16:44 80.8 °F 53.6 °F 29.92 in SW 6.0 mph 9.0 mph 39 % 0.00 in 557.00 W/m2
16:49 80.7 °F 52.8 °F 29.92 in WSW 4.0 mph 5.0 mph 38 % 0.00 in 545.00 W/m2
16:54 80.7 °F 54.2 °F 29.92 in WSW 3.0 mph 7.0 mph 40 % 0.00 in 531.00 W/m2
16:59 80.6 °F 52.7 °F 29.92 in Calm   5.0 mph 38 % 0.00 in 515.00 W/m2
17:04 80.6 °F 52.7 °F 29.91 in South 2.0 mph 8.0 mph 38 % 0.00 in 499.00 W/m2
17:09 80.5 °F 54.0 °F 29.91 in SW 4.0 mph 7.0 mph 40 % 0.00 in 487.00 W/m2
17:14 80.5 °F 54.7 °F 29.91 in West 2.0 mph 7.0 mph 41 % 0.00 in 469.00 W/m2
17:19 80.4 °F 54.6 °F 29.91 in Calm   2.0 mph 41 % 0.00 in 452.00 W/m2
17:24 80.4 °F 56.5 °F 29.91 in WNW 1.0 mph 6.0 mph 44 % 0.00 in 436.00 W/m2
17:29 80.2 °F 55.0 °F 29.91 in Calm   5.0 mph 42 % 0.00 in 418.00 W/m2
17:34 80.2 °F 56.3 °F 29.91 in WNW 3.0 mph 5.0 mph 44 % 0.00 in 399.00 W/m2
17:39 80.1 °F 56.2 °F 29.91 in WNW 3.0 mph 4.0 mph 44 % 0.00 in 383.00 W/m2
17:44 80.1 °F 57.5 °F 29.91 in Calm   7.0 mph 46 % 0.00 in 371.00 W/m2
17:49 80.1 °F 58.7 °F 29.91 in Calm   6.0 mph 48 % 0.00 in 352.00 W/m2
17:54 80.0 °F 58.6 °F 29.91 in Calm   5.0 mph 48 % 0.00 in 334.00 W/m2
17:59 79.9 °F 59.0 °F 29.91 in Calm   8.0 mph 49 % 0.00 in 318.00 W/m2
18:04 79.7 °F 59.4 °F 29.91 in WSW 4.0 mph 7.0 mph 50 % 0.00 in 301.00 W/m2
18:09 79.6 °F 58.8 °F 29.91 in West 1.0 mph 7.0 mph 49 % 0.00 in 283.00 W/m2
18:14 79.4 °F 58.6 °F 29.91 in West 5.0 mph 6.0 mph 49 % 0.00 in 267.00 W/m2
18:19 79.3 °F 57.9 °F 29.91 in West 4.0 mph 5.0 mph 48 % 0.00 in 251.00 W/m2
18:24 79.2 °F 59.0 °F 29.91 in West 1.0 mph 2.0 mph 50 % 0.00 in 234.00 W/m2
18:29 78.9 °F 57.6 °F 29.91 in West 2.0 mph 4.0 mph 48 % 0.00 in 218.00 W/m2
18:34 78.7 °F 57.4 °F 29.91 in West 2.0 mph 4.0 mph 48 % 0.00 in 204.00 W/m2
18:39 78.6 °F 57.9 °F 29.91 in West 2.0 mph 5.0 mph 49 % 0.00 in 186.00 W/m2
18:44 78.5 °F 58.3 °F 29.91 in Calm   2.0 mph 50 % 0.00 in 167.00 W/m2
18:49 78.4 °F 58.2 °F 29.91 in Calm   5.0 mph 50 % 0.00 in 146.00 W/m2
18:54 78.2 °F 58.6 °F 29.91 in Calm   1.0 mph 51 % 0.00 in 127.00 W/m2
18:59 78.0 °F 59.0 °F 29.91 in Calm     52 % 0.00 in 107.00 W/m2
19:05 77.8 °F 58.8 °F 29.91 in Calm   4.0 mph 52 % 0.00 in 90.00 W/m2
19:10 77.6 °F 58.6 °F 29.91 in Calm   4.0 mph 52 % 0.00 in 72.00 W/m2
19:15 77.4 °F 59.0 °F 29.91 in Calm   3.0 mph 53 % 0.00 in 62.00 W/m2
19:20 77.1 °F 58.1 °F 29.91 in Calm     52 % 0.00 in 47.00 W/m2
19:25 76.8 °F 58.4 °F 29.91 in Calm     53 % 0.00 in 42.00 W/m2
19:30 76.4 °F 59.1 °F 29.91 in Calm     55 % 0.00 in 32.00 W/m2
19:35 75.8 °F 59.0 °F 29.91 in Calm     56 % 0.00 in 19.00 W/m2
19:40 75.1 °F 58.3 °F 29.91 in Calm     56 % 0.00 in 16.00 W/m2
19:45 74.6 °F 58.9 °F 29.91 in Calm     58 % 0.00 in 12.00 W/m2
19:50 74.0 °F 59.2 °F 29.91 in Calm     60 % 0.00 in 11.00 W/m2
19:55 73.5 °F 59.2 °F 29.91 in Calm     61 % 0.00 in 9.00 W/m2
20:00 73.0 °F 58.8 °F 29.91 in Calm     61 % 0.00 in 5.00 W/m2
20:05 72.5 °F 58.3 °F 29.92 in Calm     61 % 0.00 in 0.00 W/m2
20:10 72.1 °F 58.4 °F 29.91 in Calm     62 % 0.00 in 0.00 W/m2
20:15 71.6 °F 57.9 °F 29.92 in Calm     62 % 0.00 in 0.00 W/m2
20:20 71.2 °F 57.5 °F 29.92 in Calm     62 % 0.00 in 0.00 W/m2
20:25 70.8 °F 57.2 °F 29.92 in Calm     62 % 0.00 in 0.00 W/m2
20:30 70.4 °F 57.2 °F 29.92 in Calm     63 % 0.00 in 0.00 W/m2
20:35 70.1 °F 56.9 °F 29.92 in Calm     63 % 0.00 in 0.00 W/m2
20:40 69.8 °F 56.7 °F 29.92 in Calm     63 % 0.00 in 0.00 W/m2
20:45 69.6 °F 56.9 °F 29.92 in Calm     64 % 0.00 in 0.00 W/m2
20:50 69.4 °F 56.7 °F 29.92 in Calm     64 % 0.00 in 0.00 W/m2
20:55 69.2 °F 56.5 °F 29.93 in Calm     64 % 0.00 in 0.00 W/m2
21:00 69.1 °F 56.8 °F 29.92 in Calm     65 % 0.00 in 0.00 W/m2
21:05 69.0 °F 56.3 °F 29.93 in Calm     64 % 0.00 in 0.00 W/m2
21:10 68.8 °F 56.6 °F 29.93 in Calm     65 % 0.00 in 0.00 W/m2
21:11 68.8 °F 57.0 °F 29.93 in Calm     66 % 0.00 in 0.00 W/m2
21:16 68.7 °F 56.5 °F 29.93 in Calm     65 % 0.00 in 0.00 W/m2
21:21 68.6 °F 56.4 °F 29.93 in Calm     65 % 0.00 in 0.00 W/m2
21:26 68.5 °F 56.3 °F 29.93 in Calm     65 % 0.00 in 0.00 W/m2
21:31 68.4 °F 56.2 °F 29.93 in Calm     65 % 0.00 in 0.00 W/m2
21:36 68.2 °F 56.0 °F 29.93 in Calm     65 % 0.00 in 0.00 W/m2
21:41 68.2 °F 56.0 °F 29.93 in Calm     65 % 0.00 in 0.00 W/m2
21:46 68.2 °F 56.4 °F 29.93 in Calm   1.0 mph 66 % 0.00 in 0.00 W/m2
21:51 68.1 °F 56.3 °F 29.93 in Calm   1.0 mph 66 % 0.00 in 0.00 W/m2
21:56 68.1 °F 56.3 °F 29.93 in Calm   3.0 mph 66 % 0.00 in 0.00 W/m2
22:01 68.0 °F 56.2 °F 29.93 in West 1.0 mph 4.0 mph 66 % 0.00 in 0.00 W/m2
22:06 68.0 °F 56.7 °F 29.93 in SW 2.0 mph 5.0 mph 67 % 0.00 in 0.00 W/m2
22:11 68.0 °F 56.7 °F 29.93 in South 4.0 mph 6.0 mph 67 % 0.00 in 0.00 W/m2
22:16 68.0 °F 56.7 °F 29.93 in ESE 5.0 mph 7.0 mph 67 % 0.00 in 0.00 W/m2
22:21 67.9 °F 57.0 °F 29.93 in ESE 2.0 mph 4.0 mph 68 % 0.00 in 0.00 W/m2
22:26 67.9 °F 57.0 °F 29.93 in Calm   5.0 mph 68 % 0.00 in 0.00 W/m2
22:31 67.9 °F 56.5 °F 29.93 in Calm   7.0 mph 67 % 0.00 in 0.00 W/m2
22:36 67.9 °F 56.5 °F 29.93 in ESE 1.0 mph 7.0 mph 67 % 0.00 in 0.00 W/m2
22:41 68.0 °F 56.7 °F 29.93 in ESE 1.0 mph 4.0 mph 67 % 0.00 in 0.00 W/m2
22:46 68.0 °F 56.7 °F 29.93 in ESE 1.0 mph 5.0 mph 67 % 0.00 in 0.00 W/m2
22:51 68.0 °F 56.7 °F 29.93 in Calm   4.0 mph 67 % 0.00 in 0.00 W/m2
22:56 68.0 °F 56.7 °F 29.93 in Calm   2.0 mph 67 % 0.00 in 0.00 W/m2
23:01 68.0 °F 56.7 °F 29.93 in Calm   1.0 mph 67 % 0.00 in 0.00 W/m2
23:06 68.0 °F 56.7 °F 29.93 in ESE 11.0 mph 11.0 mph 67 % 0.00 in 0.00 W/m2
23:11 68.0 °F 56.7 °F 29.93 in Calm   6.0 mph 67 % 0.00 in 0.00 W/m2
23:16 68.0 °F 56.7 °F 29.92 in Calm   5.0 mph 67 % 0.00 in 0.00 W/m2
23:21 67.9 °F 56.5 °F 29.93 in ESE 4.0 mph 5.0 mph 67 % 0.00 in 0.00 W/m2
23:26 67.8 °F 56.5 °F 29.92 in ESE 1.0 mph 11.0 mph 67 % 0.00 in 0.00 W/m2
23:31 67.7 °F 56.0 °F 29.92 in ESE 2.0 mph 5.0 mph 66 % 0.00 in 0.00 W/m2
23:36 67.6 °F 55.8 °F 29.92 in Calm   5.0 mph 66 % 0.00 in 0.00 W/m2
23:41 67.5 °F 56.2 °F 29.92 in ESE 5.0 mph 8.0 mph 67 % 0.00 in 0.00 W/m2
23:46 67.3 °F 56.0 °F 29.92 in ESE 4.0 mph 5.0 mph 67 % 0.00 in 0.00 W/m2
23:52 67.1 °F 55.8 °F 29.93 in ESE 5.0 mph 8.0 mph 67 % 0.00 in 0.00 W/m2
23:57 67.0 °F 55.7 °F 29.92 in ESE 4.0 mph 15.0 mph 67 % 0.00 in 0.00 W/m2
Juneau County Weather
Compliments of Weather Underground - 4.75 mb
 WU-history PHP script courtesy of   Juneau County Weather.
powered by Cumulus v1.9.3 (1059)
Ambient Weather VWS v14.00
Top Contact Website Map Copyright © 2007 - 2018 Foresthillweather.com Never base important decisions on this or any weather information obtained from the Internet